Terminal Aerodrome Forecast
Issued by NWS Louisville, KY

Home | Current Version | Previous Version | Text Only | Print | Product List | Glossary On
Versions: 1 2 3 4 5 6 7 8 9 10 11 12 13 14 15 16 17 18 19 20 21 22
000
FTUS43 KLMK 012300
TAFBWG
TAF
KBWG 012320Z 0200/0224 22007KT P6SM SCT250
     FM020800 21005KT P6SM BKN250
     FM021400 22008KT P6SM VCSH BKN035 OVC250=

USA.gov is the U.S. government's official web portal to all federal, state and local government web resources and services.